Location: El Gallo
(32.4380°N, 116.9347°W)
Time: 18:49:03
(UTC+00:00)

CZ-4B R/B - Pass Details

Date: 01 October 2022
Orbit: 702 x 802 km, 99.0° (Epoch: 01 December)

Event Time Altitude Azimuth Distance (km) Brightness Sun altitude
Rises 12:55:59 0° 11° (N) 3,300 7.0 -10.5°
Reaches altitude 10° 12:58:19 10° 9° (N) 2,374 6.2 -10.0°
Maximum altitude 13:03:34 76° 285° (WNW) 829 3.6 -8.9°
Drops below altitude 10° 13:08:48 10° 200° (SSW) 2,367 5.8 -7.8°
Sets 13:11:07 0° 199° (SSW) 3,289 6.6 -7.3°
